Location: Aubervilles
(48.9167°N, 2.3833°E)
Time: 09:37:32
(UTC+00:00)

NOAA 6 - Pass Details

Date: 03 February 2023
Orbit: 770 x 786 km, 98.7° (Epoch: 28 March)

Event Time Altitude Azimuth Distance (km) Brightness Sun altitude
Rises 17:45:54 0° 170° (S) 3,249 7.3 -9.4°
Reaches altitude 10° 17:48:13 10° 173° (S) 2,328 6.6 -9.7°
Maximum altitude 17:53:20 70° 257° (WSW) 832 4.4 -10.6°
Drops below altitude 10° 17:58:32 10° 341° (NNW) 2,355 6.6 -11.4°
Sets 18:00:53 0° 344° (NNW) 3,290 7.3 -11.8°
